Weather History for KSTC - March, 2012

Change the Weather History Date:

Monday, March 19, 2012

  Actual Average Record
Temperature  
Mean Temperature 69 °F 31 °F  
Max Temperature 78 °F 40 °F 78 °F (2012)
Min Temperature 59 °F 21 °F -12 °F (1965)
Degree Days  
Heating Degree Days 0 34  
Month to date heating degree days 482 730  
Since 1 July heating degree days 5853 7176  
Cooling Degree Days 4 0  
Month to date cooling degree days 7 0  
Year to date cooling degree days 7 0  
Growing Degree Days 18 (Base 50)    
Moisture  
Dew Point 58 °F    
Average Humidity 72    
Maximum Humidity 93    
Minimum Humidity 50    
Precipitation  
Precipitation 0.49 in 0.06 in 2.00 in (1897)
Month to date precipitation 0.73 0.84  
Year to date precipitation 2.54 2.08  
Snow  
Snow 0.00 in 0.20 in 6.40 in (1964)
Month to date snowfall 0.7 6.0  
Since 1 July snowfall 27.4 40.2  
Snow Depth 0.00 in    
Sea Level Pressure  
Sea Level Pressure 29.65 in    
Wind  
Wind Speed 16 mph (SSE)    
Max Wind Speed 35 mph    
Max Gust Speed 44 mph    
Visibility 9 miles    
Events Rain , Thunderstorm    
T = Trace of Precipitation, MM = Missing Value Source: NWS Daily Summary

Daily Weather History Graph

Daily Weather History Graph

Search for Another Location

Airport or City:

Trip Planner

Search our weather history database for the weather conditions in past years. The results will help you decide how hot, cold, wet, or windy it might be!

Date:

Astronomy

Mar. 19, 2012 Rise Set
Actual Time 7:20 AM CDT 7:28 PM CDT
Civil Twilight 6:50 AM CDT 7:57 PM CDT
Nautical Twilight 6:16 AM CDT 8:32 PM CDT
Astronomical Twilight 5:40 AM CDT 9:08 PM CDT
Moon 5:39 AM CDT (3/19) 4:51 PM CDT (3/19)
Length of Visible Light 13h 07m
Length of Day
12h 07m
Waning Crescent, 8% of the Moon is Illuminated
Mar 19
Waning Crescent
Mar 22
New
Mar 30
First Quarter
Apr 6
Full
Apr 13
Last Quarter

Hourly Weather History & Observations

Time (CDT) Temp. Dew Point Humidity Pressure Visibility Wind Dir Wind Speed Gust Speed Precip Events Conditions
12:53 AM 66.0 °F 57.0 °F 73% 29.69 in 10.0 mi South 13.8 mph - N/A   Clear
1:53 AM 64.0 °F 57.0 °F 78% 29.70 in 10.0 mi SSE 11.5 mph - N/A   Clear
2:53 AM 64.0 °F 57.0 °F 78% 29.70 in 10.0 mi SSE 12.7 mph - N/A   Clear
3:16 AM 64.4 °F 57.2 °F 77% 29.69 in 10.0 mi South 13.8 mph - N/A   Mostly Cloudy
3:53 AM 64.0 °F 57.9 °F 80% 29.69 in 10.0 mi SSE 11.5 mph 19.6 mph N/A   Overcast
4:32 AM 64.4 °F 57.2 °F 77% 29.67 in 10.0 mi SSE 13.8 mph - N/A   Scattered Clouds
4:53 AM 64.4 °F 57.2 °F 77% 29.68 in 10.0 mi South 15.0 mph - N/A   Scattered Clouds
5:53 AM 63.0 °F 57.0 °F 81% 29.69 in 9.0 mi SE 12.7 mph - N/A   Clear
6:53 AM 62.6 °F 57.2 °F 82% 29.68 in 9.0 mi SE 11.5 mph - N/A   Clear
7:53 AM 62.6 °F 57.2 °F 82% 29.69 in 9.0 mi SSE 13.8 mph - N/A   Overcast
8:53 AM 64.0 °F 57.9 °F 80% 29.70 in 10.0 mi SE 13.8 mph 20.7 mph N/A   Partly Cloudy
9:53 AM 68.0 °F 57.9 °F 70% 29.69 in 10.0 mi SSE 19.6 mph 26.5 mph N/A   Scattered Clouds
10:53 AM 68.0 °F 57.0 °F 68% 29.70 in 10.0 mi South 20.7 mph 25.3 mph N/A   Overcast
11:20 AM 68.0 °F 57.2 °F 68% 29.70 in 10.0 mi South 15.0 mph - N/A   Overcast
11:53 AM 68.0 °F 57.9 °F 70% 29.69 in 10.0 mi SSE 16.1 mph 21.9 mph N/A   Overcast
12:35 PM 71.6 °F 57.2 °F 60% 29.65 in 10.0 mi SE 20.7 mph 26.5 mph N/A   Mostly Cloudy
12:49 PM 71.6 °F 57.2 °F 60% 29.65 in 10.0 mi SSE 20.7 mph 34.5 mph N/A   Mostly Cloudy
12:53 PM 71.1 °F 57.9 °F 63% 29.66 in 10.0 mi SSE 19.6 mph 31.1 mph N/A   Mostly Cloudy
1:16 PM 73.4 °F 57.2 °F 57% 29.64 in 10.0 mi SSE 16.1 mph 26.5 mph N/A   Overcast
1:53 PM 75.9 °F 57.9 °F 54% 29.64 in 10.0 mi SSE 17.3 mph 28.8 mph N/A   Scattered Clouds
2:53 PM 75.9 °F 57.0 °F 52% 29.62 in 10.0 mi South 23.0 mph 32.2 mph N/A   Overcast
3:53 PM 75.0 °F 55.9 °F 51% 29.60 in 10.0 mi SSE 19.6 mph 31.1 mph N/A   Overcast
4:53 PM 75.9 °F 55.9 °F 50% 29.58 in 10.0 mi SSE 23.0 mph 34.5 mph N/A   Mostly Cloudy
5:53 PM 75.0 °F 55.9 °F 51% 29.57 in 10.0 mi SE 23.0 mph 29.9 mph N/A   Partly Cloudy
6:53 PM 72.0 °F 57.9 °F 61% 29.58 in 10.0 mi SE 29.9 mph 43.7 mph 0.00 in   Mostly Cloudy
7:13 PM 69.8 °F 59.0 °F 68% 29.57 in 5.0 mi SSE 17.3 mph 29.9 mph N/A Rain , Thunderstorm Light Thunderstorms and Rain
7:30 PM 62.6 °F 60.8 °F 94% 29.63 in 3.0 mi South 21.9 mph 43.7 mph N/A Rain , Thunderstorm Heavy Thunderstorms and Rain
7:53 PM 62.1 °F 60.1 °F 93% 29.66 in 5.0 mi SSE 15.0 mph - N/A Rain , Thunderstorm Thunderstorms and Rain
8:18 PM 60.8 °F 59.0 °F 94% 29.64 in 4.0 mi SSE 10.4 mph - N/A Rain Light Rain
8:37 PM 60.8 °F 59.0 °F 94% 29.64 in 7.0 mi SSE 8.1 mph - N/A Rain Light Rain
8:44 PM 60.8 °F 59.0 °F 94% 29.64 in 6.0 mi SE 8.1 mph - N/A Rain Light Rain
8:53 PM 61.0 °F 59.0 °F 93% 29.66 in 10.0 mi SE 11.5 mph - N/A Rain Light Rain
9:25 PM 60.8 °F 59.0 °F 94% 29.62 in 10.0 mi SE 9.2 mph - 0.01 in   Overcast
9:46 PM 60.8 °F 57.2 °F 88% 29.60 in 10.0 mi ESE 10.4 mph - 0.01 in   Overcast
9:53 PM 60.1 °F 57.9 °F 93% 29.62 in 10.0 mi ESE 9.2 mph - 0.01 in   Mostly Cloudy
10:27 PM 60.8 °F 57.2 °F 88% 29.60 in 10.0 mi ESE 11.5 mph - N/A   Partly Cloudy
10:53 PM 60.1 °F 57.9 °F 93% 29.66 in 10.0 mi South 6.9 mph 17.3 mph N/A   Mostly Cloudy
11:53 PM 59.0 °F 57.9 °F 96% 29.70 in 10.0 mi South 5.8 mph - N/A   Overcast